Wind_Speed
54 52 52 53 54 55 57 58 59 57 55 55 58 58 61 63 63 63 62 62 62 62 62 62 63 64 64 63 63 63 62 61 60 60 59 59 58 57
54 54 55 57 57 59 61 62 64 66 65 58 59 61 62 62 62 65 65 64 63 64 65 66 67 67 66 66 66 66 65 65 64 63 64 63 63 62
56 57 58 59 60 62 64 65 67 69 72 68 66 65 66 66 66 66 67 68 67 67 66 67 69 70 72 72 72 71 70 69 68 68 68 68 67 67
60 61 62 63 64 65 66 67 69 70 72 74 73 70 69 68 67 66 66 67 68 69 70 70 71 73 74 75 76 77 77 76 75 74 75 74 74 73
60 61 62 63 63 64 66 67 68 69 70 71 72 72 71 70 69 69 68 68 69 70 71 72 73 73 74 75 76 76 77 78 79 80 81 81 80 79
62 63 63 63 64 64 65 66 67 68 68 69 70 72 73 73 72 71 70 70 70 71 73 74 75 76 77 78 79 79 80 81 82 83 83 83 83 85
62 62 63 64 65 66 65 64 64 65 66 66 66 69 70 73 74 74 74 73 70 72 74 74 76 77 77 79 81 82 82 82 83 84 85 85 84 84
60 61 61 62 62 61 62 62 62 63 63 66 66 67 69 72 74 76 78 79 78 79 81 80 84 84 85 87 87 88 88 88 88 88 88 88 88 89
59 58 57 57 58 59 60 61 63 66 69 72 73 75 77 80 83 85 87 88 88 89 94 92 95 94 96 97 98 98 98 97 97 97 96 95 94 93
59 60 61 62 63 66 68 69 71 73 76 79 82 83 86 88 89 90 90 90 89 89 92 92 90 91 92 92 93 93 93 93 93 92 92 91 91 90
63 65 67 68 71 74 77 80 82 83 86 87 88 88 88 87 88 89 86 87 84 80 77 82 74 77 77 76 76 79 79 81 80 79 77 76 74 73
71 73 75 78 80 82 84 87 88 89 91 90 87 84 80 75 72 72 73 72 69 66 53 60 53 51 54 54 56 56 57 57 58 59 58 57 54 52
77 79 81 82 82 84 84 86 87 87 84 79 72 66 62 59 53 46 42 44 43 41 38 41 40 44 45 41 35 36 34 34 36 38 39 36 38 39
82 80 80 79 78 77 76 74 71 68 65 62 59 52 43 34 31 34 36 36 36 34 34 39 40 34 27 22 19 18 17 19 18 18 20 34 32 33
77 73 70 67 64 62 59 58 59 59 56 50 38 27 27 30 32 33 34 34 32 33 30 31 26 21 19 14 14 14 17 17 21 25 25 24 25 30
64 62 58 55 52 51 52 53 53 48 39 28 25 27 31 32 32 32 31 30 27 23 23 23 20 19 21 19 16 20 18 17 19 22 20 20 21 26
57 53 50 48 48 50 49 45 38 31 27 29 30 31 29 28 27 23 23 22 17 19 19 15 14 12 13 17 22 17 17 17 15 20 20 22 25 27
53 51 48 48 49 46 39 28 25 26 27 29 28 24 21 19 16 18 22 22 20 14 13 14 11 13 14 11 14 11 13 15 17 18 20 23 24 25
52 49 47 47 41 32 23 22 23 26 25 24 20 16 14 15 16 16 7 2 3 7 9 10 11 14 11 11 12 12 14 15 16 18 20 23 24 25
47 45 40 36 24 20 22 23 24 23 22 19 13 10 11 11 11 8 5 5 6 6 6 5 6 8 10 11 12 12 14 16 18 21 23 24 24 23
35 33 28 19 21 22 22 21 21 20 17 12 8 7 9 10 7 6 4 2 2 3 5 6 7 7 8 9 10 12 13 14 15 16 17 17 18 18
30 19 19 22 22 21 19 17 16 13 7 6 5 5 7 6 4 6 4 2 2 5 5 6 3 1 1 1 1 5 8 10 11 12 12 13 13 14
17 20 21 20 18 15 12 11 8 5 5 4 3 3 2 3 1 2 4 4 4 5 4 3 3 3 3 2 3 4 4 3 2 3 6 7 8 8
Wind_Direction
287 285 283 280 277 275 273 271 269 264 265 268 269 270 272 274 275 274 274 274 274 274 273 272 272 272 271 270 269 268 265 262 260 259 257 256 255 254
282 281 281 279 278 277 276 276 274 272 270 273 272 271 271 271 272 273 274 274 273 273 273 273 273 271 269 268 267 264 262 260 259 257 255 254 255 255
283 281 279 277 276 276 276 276 276 275 274 276 276 275 273 272 271 271 271 271 271 269 268 268 269 270 270 269 267 264 261 260 259 257 256 255 254 254
286 284 283 282 282 281 279 278 277 277 276 275 277 278 278 277 275 273 271 270 269 268 268 267 266 266 266 266 266 265 263 260 258 257 256 255 255 255
287 286 285 285 284 283 282 282 281 280 280 280 279 279 279 278 277 276 274 272 271 270 269 268 268 267 265 264 264 264 264 264 264 261 256 255 255 256
286 286 284 283 283 282 282 282 282 282 282 281 281 281 280 279 277 275 273 274 272 272 271 269 268 267 267 266 265 264 263 262 262 262 262 260 258 257
291 290 289 288 288 288 286 286 285 284 283 281 280 279 279 279 279 278 277 276 275 274 273 273 273 272 270 269 267 266 264 263 262 262 262 262 262 261
291 291 291 291 290 289 288 287 287 286 284 284 283 282 281 281 280 280 280 278 276 276 275 273 273 272 271 271 270 269 268 266 265 263 262 261 260 260
295 294 293 292 291 290 289 289 288 288 288 287 286 285 284 284 282 282 281 280 278 278 277 275 275 274 274 272 271 270 269 269 268 267 266 266 265 264
296 295 293 292 290 291 291 291 290 289 287 287 287 286 285 285 284 283 281 280 278 277 277 275 274 273 272 272 271 270 269 268 268 268 267 266 265 265
294 293 292 291 291 291 291 291 291 291 290 290 290 290 289 287 286 284 283 281 279 278 278 277 277 275 273 272 271 271 270 270 269 268 267 266 265 264
295 296 296 295 294 293 293 292 291 291 290 291 291 290 290 288 287 286 285 284 283 281 282 280 279 279 278 279 278 274 269 264 260 258 258 258 256 252
297 294 293 292 292 291 291 291 291 291 292 293 292 291 290 288 286 282 281 282 283 285 281 277 282 286 286 284 274 268 261 256 251 248 247 231 233 240
297 293 292 292 291 292 292 292 293 293 294 294 294 293 289 282 279 283 285 284 284 283 280 283 287 283 281 285 274 250 255 248 227 231 243 231 240 219
295 294 294 294 293 294 294 295 295 295 295 295 294 288 288 290 290 287 286 286 285 284 280 283 280 267 267 267 260 252 243 240 239 246 244 224 220 219
296 297 299 298 297 296 296 296 296 295 295 294 293 295 296 294 293 291 289 289 283 272 281 281 268 267 273 251 248 244 248 251 235 219 219 216 220 224
295 296 295 293 293 296 296 294 290 288 290 294 295 296 296 294 292 287 289 294 288 269 274 276 272 260 270 255 241 242 246 232 227 229 222 222 222 215
296 295 295 296 298 297 293 284 281 284 289 290 291 296 294 293 295 294 292 285 287 262 256 272 243 258 268 256 222 230 226 227 221 222 220 218 217 221
297 296 298 299 297 292 283 283 285 290 289 290 296 288 287 296 299 307 310 295 262 243 257 273 254 251 250 233 222 235 231 226 222 222 224 228 233 239
294 296 299 297 289 288 290 291 294 293 292 295 286 266 278 301 302 285 299 304 277 261 264 257 243 238 240 240 240 238 234 232 234 236 239 242 244 240
296 297 297 289 294 296 295 295 293 290 292 286 228 253 295 308 270 273 303 302 283 282 284 280 268 262 253 246 241 235 235 238 238 238 237 235 235 232
298 292 292 294 294 294 294 288 286 285 267 213 242 275 287 312 229 253 240 244 292 319 319 328 314 201 138 94 240 231 232 233 231 227 229 228 231 229
295 297 296 293 292 289 283 284 272 197 196 232 261 301 276 342 271 276 265 268 290 310 317 356 47 98 122 133 89 77 90 89 118 189 215 221 222 221
Height
5653 5650 5647 5643 5640 5637 5635 5633 5631 5634 5634 5631 5628 5625 5622 5619 5617 5616 5616 5614 5612 5611 5611 5611 5611 5612 5612 5612 5613 5614 5615 5617 5619 5621 5623 5624 5627 5629
5637 5634 5631 5628 5624 5621 5618 5615 5612 5610 5611 5613 5611 5607 5604 5602 5600 5597 5596 5595 5595 5593 5592 5590 5589 5590 5591 5592 5593 5595 5596 5598 5600 5602 5604 5607 5609 5611
5620 5617 5612 5610 5606 5603 5600 5597 5594 5591 5589 5592 5590 5587 5586 5584 5581 5579 5577 5575 5575 5573 5572 5572 5570 5568 5568 5569 5571 5573 5575 5577 5579 5581 5584 5586 5589 5591
5603 5600 5596 5592 5589 5586 5583 5580 5576 5572 5569 5567 5567 5565 5563 5560 5558 5557 5556 5554 5552 5551 5549 5549 5549 5548 5547 5547 5548 5549 5551 5554 5556 5559 5561 5565 5567 5571
5586 5582 5579 5575 5572 5568 5564 5561 5557 5553 5550 5548 5545 5543 5542 5538 5536 5534 5532 5532 5530 5529 5527 5526 5524 5524 5524 5524 5524 5526 5528 5530 5533 5534 5538 5540 5544 5547
5568 5564 5560 5556 5553 5549 5546 5542 5538 5535 5531 5528 5525 5522 5518 5515 5513 5512 5512 5509 5509 5506 5504 5502 5501 5500 5500 5500 5500 5501 5503 5504 5506 5508 5511 5515 5518 5522
5551 5547 5542 5538 5534 5530 5527 5522 5518 5515 5512 5508 5506 5503 5498 5493 5488 5487 5487 5487 5488 5483 5479 5479 5476 5476 5474 5473 5473 5474 5475 5478 5481 5483 5485 5487 5491 5494
5536 5531 5525 5520 5516 5511 5507 5503 5499 5495 5492 5488 5486 5483 5478 5473 5468 5464 5460 5458 5460 5456 5451 5454 5447 5448 5446 5444 5444 5444 5445 5448 5451 5454 5457 5460 5463 5466
5520 5515 5510 5504 5499 5496 5492 5487 5482 5476 5470 5464 5463 5459 5455 5448 5443 5440 5435 5431 5431 5429 5417 5422 5417 5418 5412 5411 5410 5412 5413 5416 5419 5421 5425 5428 5432 5436
5504 5499 5493 5489 5481 5477 5473 5469 5464 5459 5452 5446 5439 5434 5427 5420 5413 5408 5404 5401 5402 5399 5387 5387 5386 5385 5379 5379 5376 5377 5380 5382 5385 5388 5391 5395 5399 5404
5488 5481 5475 5469 5462 5455 5449 5443 5439 5434 5426 5420 5413 5407 5400 5393 5384 5377 5375 5369 5371 5371 5362 5356 5357 5353 5351 5351 5349 5349 5352 5353 5356 5358 5361 5365 5370 5375
5470 5462 5454 5446 5441 5433 5425 5417 5412 5405 5398 5394 5388 5380 5373 5366 5359 5351 5348 5344 5341 5344 5340 5333 5333 5330 5329 5328 5325 5326 5327 5329 5331 5334 5337 5341 5346 5351
5449 5442 5433 5424 5417 5409 5400 5392 5384 5377 5373 5366 5361 5357 5351 5345 5339 5334 5330 5327 5325 5326 5325 5319 5321 5317 5312 5312 5310 5308 5309 5311 5314 5318 5321 5326 5332 5337
5422 5414 5406 5399 5392 5385 5377 5368 5361 5354 5350 5345 5341 5337 5332 5329 5326 5323 5321 5318 5316 5315 5313 5309 5308 5305 5302 5302 5301 5300 5302 5303 5306 5310 5315 5319 5323 5328
5394 5388 5382 5376 5370 5364 5357 5349 5343 5337 5332 5329 5326 5323 5320 5318 5316 5312 5310 5307 5306 5304 5302 5300 5298 5297 5297 5296 5296 5298 5300 5301 5304 5306 5308 5311 5316 5323
5373 5369 5363 5357 5352 5346 5341 5335 5328 5322 5319 5317 5316 5314 5311 5308 5305 5302 5300 5297 5296 5295 5294 5293 5292 5291 5292 5292 5293 5294 5295 5296 5298 5301 5305 5309 5314 5319
5357 5354 5349 5343 5338 5333 5327 5321 5316 5313 5311 5309 5307 5305 5302 5299 5296 5293 5292 5290 5288 5288 5288 5287 5286 5286 5286 5286 5288 5289 5290 5293 5296 5298 5302 5306 5310 5315
5342 5337 5334 5328 5323 5318 5313 5310 5308 5306 5304 5302 5299 5297 5295 5292 5290 5288 5286 5284 5283 5282 5283 5283 5283 5283 5284 5284 5285 5286 5288 5290 5293 5296 5299 5303 5307 5311
5325 5321 5317 5313 5308 5304 5302 5302 5300 5298 5296 5294 5292 5290 5289 5288 5286 5284 5282 5281 5281 5281 5281 5281 5281 5281 5282 5282 5284 5285 5287 5288 5291 5293 5296 5299 5302 5306
5310 5307 5303 5300 5297 5296 5295 5293 5292 5290 5288 5287 5286 5286 5286 5285 5283 5282 5281 5281 5280 5280 5280 5280 5280 5280 5280 5281 5282 5283 5284 5286 5287 5289 5291 5294 5296 5298
5298 5295 5292 5291 5290 5288 5287 5286 5285 5284 5283 5282 5283 5283 5283 5282 5281 5281 5280 5280 5280 5280 5279 5279 5278 5278 5278 5278 5279 5279 5280 5281 5283 5284 5286 5288 5290 5293
5288 5286 5286 5284 5283 5282 5281 5280 5279 5279 5279 5280 5281 5281 5281 5280 5280 5280 5280 5280 5280 5279 5278 5277 5276 5277 5277 5277 5277 5277 5278 5279 5280 5281 5283 5285 5287 5288
5281 5280 5279 5277 5276 5276 5276 5276 5276 5277 5278 5279 5280 5280 5280 5280 5280 5280 5280 5280 5279 5279 5278 5278 5278 5278 5278 5279 5279 5278 5279 5279 5279 5280 5282 5283 5284 5286